[[{"header":{"parameterUnit":"m.s-1","parameterCategory":1,"la1":30.2991,"la2":30.254,"lo1":-89.0895,"lo2":-89.0444,"dy":0.0017,"dx":0.0017,"nx":28,"ny":28,"refTime":"2023-10-18T03:00:00:Z","depth":0,"parameterNumber":2,"parameterNumberName":"U-component_of_WINDS"},"data":[0,0,0,0,0,0,0,0,0,0,0,0,0,0,0,0,0,0,0,0,0,0,0,0,0,0,0,0,0,0,0,0,0,0,0,0,0,0,0,0,0,0,0,0,0,0,0,0,0,0,0,0,0,0,0,0,0,0,-1.4269,-1.4269,0,-1.4257,-1.4256,-1.4256,-1.4238,-1.4238,-1.4238,-1.4238,-1.4224,-1.4224,-1.4223,0,0,0,0,0,0,0,0,0,0,0,0,0,-1.4277,-1.4277,-1.4269,-1.4269,-1.4269,-1.4257,-1.4256,-1.4256,-1.4238,-1.4238,-1.4238,-1.4237,-1.4224,-1.4224,-1.4223,0,0,0,0,0,0,0,0,0,0,0,0,0,-1.427,-1.4277,-1.4269,-1.4258,-1.4257,-1.4257,-1.4256,-1.4256,-1.4239,-1.4238,-1.4238,-1.4237,-1.4224,-1.4224,-1.4223,-1.4232,0,0,-1.4223,-1.4223,0,0,0,0,0,0,0,0,-1.4271,-1.427,-1.426,-1.4259,-1.4258,-1.4249,-1.4254,-1.4248,-1.4239,-1.4246,-1.4238,-1.4237,-1.4232,-1.4231,-1.423,-1.4231,-1.4231,-1.4223,-1.4223,-1.4223,-1.4223,0,0,0,0,0,0,0,-1.4271,-1.427,-1.4264,-1.426,-1.4259,-1.4254,-1.4253,-1.4253,-1.4242,-1.4245,-1.4244,-1.4243,-1.4232,-1.423,-1.423,-1.423,-1.4223,-1.4223,-1.4223,-1.4223,-1.4238,-1.4239,0,0,0,0,0,0,-1.4273,-1.4271,-1.4265,-1.4264,-1.4263,-1.4254,-1.4253,-1.4252,-1.4242,-1.424,-1.4243,-1.4242,-1.4231,-1.423,-1.4229,-1.4238,-1.4223,-1.4223,-1.4223,-1.4238,-1.4238,-1.4239,0,0,0,0,0,0,-1.4273,-1.4273,-1.4265,-1.4267,-1.4266,-1.4255,-1.4254,-1.4252,-1.4251,-1.424,-1.4238,-1.4244,-1.423,-1.4229,-1.4231,-1.4237,-1.4223,-1.4223,-1.4237,-1.4238,-1.4239,-1.4256,0,0,0,0,0,0,-1.4274,-1.4273,-1.4276,-1.4267,-1.4266,-1.4268,-1.4255,-1.4252,-1.4251,-1.4249,-1.424,-1.4238,-1.423,-1.4232,-1.4231,-1.4237,-1.4223,-1.4236,-1.4237,-1.4238,-1.4255,-1.4257,-1.4259,0,0,0,0,0,-1.4274,-1.4281,-1.4276,-1.4276,-1.4269,-1.4268,-1.4267,-1.4258,-1.4251,-1.4254,-1.4247,-1.4238,-1.4237,-1.4232,-1.4231,-1.4237,-1.4236,-1.4237,-1.4238,-1.4254,-1.4256,-1.4259,0,0,0,0,0,0,-1.429,-1.428,-1.4274,-1.4279,-1.4274,-1.4265,-1.4268,-1.4261,-1.4258,-1.4257,-1.4245,-1.4243,-1.4247,-1.4242,-1.4237,-1.4245,-1.4235,-1.4236,-1.4247,-1.425,-1.4252,-1.4252,-1.4222,0,0,0,0,0,-1.4295,-1.4295,-1.4285,-1.429,-1.4289,-1.4279,-1.4278,-1.4271,-1.4266,-1.4264,-1.4258,-1.4253,-1.4252,-1.4251,-1.4249,-1.4255,-1.4252,-1.4258,-1.426,-1.4262,-1.4263,-1.4265,-1.4268,-1.4242,-1.4242,-1.4242,0,0,-1.4303,-1.4297,-1.4298,-1.4293,-1.4289,-1.429,-1.4277,-1.4278,-1.4278,-1.4264,-1.4266,-1.4261,-1.4255,-1.4259,-1.4261,-1.4256,-1.4269,-1.4264,-1.4265,-1.4265,-1.4267,-1.4269,-1.4271,-1.4243,-1.4243,-1.4243,0,0,-1.4318,-1.4314,-1.4317,-1.4314,-1.4308,-1.4302,-1.4303,-1.4295,-1.4291,-1.4293,-1.4283,-1.4283,-1.4281,-1.4277,-1.4274,-1.429,-1.4281,-1.429,-1.43,-1.4303,-1.4305,-1.4307,-1.4311,-1.4313,-1.4291,-1.4291,-1.4291,0,-1.4329,-1.4329,-1.432,-1.4321,-1.432,-1.4308,-1.4312,-1.4309,-1.4303,-1.4302,-1.4296,-1.4294,-1.4289,-1.4292,-1.4295,-1.4294,-1.4295,-1.429,-1.4306,-1.4307,-1.4309,-1.4313,-1.4315,-1.4292,-1.4291,-1.4291,-1.4291,0,-1.4342,-1.4343,-1.4346,-1.4341,-1.434,-1.4342,-1.4334,-1.4334,-1.4328,-1.4322,-1.4324,-1.4318,-1.4315,-1.4316,-1.4309,-1.4318,-1.4315,-1.4308,-1.4298,-1.4312,-1.4316,-1.4318,-1.4293,-1.4293,-1.4292,-1.4292,0,0,-1.4365,-1.4356,-1.4358,-1.4355,-1.4349,-1.4349,-1.4351,-1.4348,-1.4348,-1.4345,-1.4346,-1.4345,-1.4339,-1.4337,-1.433,-1.4333,-1.4345,-1.4326,-1.4325,-1.4328,-1.4353,-1.4357,-1.4359,-1.434,-1.434,-1.434,-1.4353,0,-1.4378,-1.4381,-1.4374,-1.4379,-1.4379,-1.4369,-1.4371,-1.4367,-1.4362,-1.4362,-1.4356,-1.4356,-1.4348,-1.4346,-1.4349,-1.4343,-1.4349,-1.4342,-1.434,-1.434,-1.434,-1.4361,-1.4366,-1.4378,-1.4355,-1.4355,-1.4355,0,-1.4393,-1.4391,-1.4396,-1.439,-1.4389,-1.4391,-1.4388,-1.4388,-1.4384,-1.438,-1.4379,-1.4371,-1.4373,-1.4365,-1.4367,-1.4362,-1.4361,-1.4358,-1.4359,-1.4357,-1.4347,-1.4359,-1.4381,-1.4383,-1.4358,-1.4357,-1.4357,0,-1.4408,-1.4407,-1.441,-1.4408,-1.4401,-1.4403,-1.44,-1.4395,-1.4394,-1.4392,-1.4391,-1.4389,-1.4388,-1.4386,-1.4379,-1.4374,-1.4382,-1.4373,-1.4378,-1.4378,-1.4379,-1.4379,-1.44,-1.4381,-1.4381,-1.4381,-1.4381,0,-1.4423,-1.4426,-1.4416,-1.4418,-1.4421,-1.4413,-1.4417,-1.4413,-1.4409,-1.441,-1.4402,-1.4402,-1.4393,-1.4393,-1.4387,-1.4389,-1.4389,-1.4386,-1.4384,-1.4386,-1.4386,-1.4384,-1.4382,-1.4381,-1.4381,-1.4381,-1.4381,0,-1.4439,-1.4433,-1.4435,-1.4429,-1.4428,-1.443,-1.4425,-1.4426,-1.4422,-1.4422,-1.4422,-1.4415,-1.4414,-1.4407,-1.4405,-1.4401,-1.4405,-1.4402,-1.4406,-1.4405,-1.441,-1.4409,-1.443,-1.4432,-1.4413,-1.4413,-1.4413,0,-1.4448,-1.445,-1.4445,-1.4445,-1.4442,-1.4442,-1.4441,-1.4434,-1.4434,-1.443,-1.4431,-1.443,-1.4429,-1.4428,-1.4422,-1.4421,-1.4417,-1.4425,-1.4417,-1.4418,-1.4416,-1.4415,-1.4415,-1.4426,-1.4426,-1.4426,-1.4426,0,-1.4464,-1.4461,-1.446,-1.4459,-1.4458,-1.4457,-1.4454,-1.4455,-1.4447,-1.4447,-1.4446,-1.4445,-1.4443,-1.4442,-1.444,-1.4437,-1.443,-1.4429,-1.443,-1.4431,-1.4433,-1.4431,-1.441,-1.4428,-1.4428,-1.4428,-1.4428,-1.4428,-1.4476,-1.4478,-1.4474,-1.4474,-1.4472,-1.447,-1.4471,-1.4467,-1.4466,-1.4464,-1.446,-1.446,-1.4457,-1.4453,-1.445,-1.445,-1.4446,-1.4448,-1.4448,-1.4448,-1.4449,-1.4434,-1.445,-1.445,-1.445,-1.445,-1.445,0,-1.4491,-1.4489,-1.4488,-1.4486,-1.4485,-1.448,-1.4478,-1.4478,-1.4478,-1.4476,-1.4475,-1.4474,-1.4473,-1.4468,-1.4467,-1.4468,-1.4464,-1.4467,-1.4466,-1.4466,-1.4453,-1.4452,-1.447,-1.447,-1.447,-1.447,-1.447,-1.447,-1.4499,-1.4501,-1.4498,-1.4499,-1.4496,-1.4496,-1.4495,-1.4494,-1.4492,-1.4492,-1.4491,-1.4488,-1.4484,-1.4483,-1.4482,-1.448,-1.448,-1.4483,-1.4481,-1.4469,-1.4467,-1.4465,-1.4463,-1.4484,-1.4484,-1.4493,-1.4493,-1.4493]},{"header":{"parameterUnit":"m.s-1","parameterCategory":1,"la1":30.2991,"la2":30.254,"lo1":-89.0895,"lo2":-89.0444,"dy":0.0017,"dx":0.0017,"nx":28,"ny":28,"refTime":"2023-10-18T03:00:00:Z","depth":0,"parameterNumber":3,"parameterNumberName":"V-component_of_WINDS"},"data":[0,0,0,0,0,0,0,0,0,0,0,0,0,0,0,0,0,0,0,0,0,0,0,0,0,0,0,0,0,0,0,0,0,0,0,0,0,0,0,0,0,0,0,0,0,0,0,0,0,0,0,0,0,0,0,0,0,0,2.9044,2.9044,0,2.9038,2.9038,2.9038,2.9071,2.9072,2.9073,2.9074,2.9062,2.9061,2.906,0,0,0,0,0,0,0,0,0,0,0,0,0,2.9082,2.9081,2.9044,2.9044,2.9044,2.9038,2.9038,2.9038,2.9071,2.9072,2.9074,2.9075,2.9063,2.9061,2.906,0,0,0,0,0,0,0,0,0,0,0,0,0,2.9069,2.9081,2.9044,2.906,2.9062,2.9038,2.9038,2.9038,2.9071,2.9072,2.9074,2.9075,2.9063,2.9062,2.906,2.9019,0,0,2.9054,2.9053,0,0,0,0,0,0,0,0,2.907,2.9068,2.9058,2.9059,2.9061,2.9057,2.9047,2.9031,2.9071,2.9067,2.9074,2.9076,2.9059,2.9058,2.9053,2.9018,2.9018,2.9054,2.9053,2.9052,2.9052,0,0,0,0,0,0,0,2.9071,2.9068,2.9042,2.9058,2.9059,2.9067,2.9066,2.9044,2.9055,2.9068,2.907,2.9069,2.906,2.9055,2.9053,2.9018,2.9054,2.9052,2.9051,2.9051,2.895,2.8949,0,0,0,0,0,0,2.907,2.9069,2.9042,2.9042,2.9069,2.9065,2.9065,2.9057,2.9055,2.9057,2.9068,2.9071,2.9057,2.9055,2.9053,2.9006,2.9052,2.905,2.9049,2.8952,2.895,2.8948,0,0,0,0,0,0,2.9071,2.9067,2.9042,2.9056,2.9053,2.9062,2.9053,2.9056,2.9051,2.9056,2.9057,2.9061,2.9058,2.9055,2.9028,2.9006,2.905,2.9048,2.8954,2.8951,2.8949,2.8911,0,0,0,0,0,0,2.9072,2.9067,2.9053,2.9055,2.9052,2.9018,2.9052,2.9055,2.9048,2.9052,2.9049,2.905,2.9059,2.903,2.9026,2.9004,2.9046,2.8956,2.8953,2.895,2.8914,2.8907,2.8902,0,0,0,0,0,2.9073,2.9041,2.9052,2.9048,2.9035,2.9017,2.9015,2.9028,2.9046,2.9031,2.9034,2.905,2.9009,2.9027,2.9023,2.9,2.8957,2.8953,2.895,2.8917,2.8909,2.8902,0,0,0,0,0,0,2.9033,2.9041,2.9054,2.9022,2.9019,2.9023,2.9004,2.9018,2.9009,2.9012,2.9027,2.9026,2.8996,2.8995,2.9015,2.8961,2.8986,2.8981,2.8962,2.8955,2.8949,2.8949,2.9045,0,0,0,0,0,2.9021,2.9007,2.9015,2.8986,2.8984,2.8994,2.8987,2.8997,2.8994,2.8992,2.8993,2.8988,2.8974,2.8964,2.8952,2.8914,2.8914,2.8896,2.889,2.8885,2.8881,2.8862,2.8854,2.8937,2.8937,2.8937,0,0,2.8995,2.8998,2.8988,2.8978,2.8977,2.8961,2.8993,2.8974,2.8963,2.8989,2.8963,2.8964,2.8959,2.8927,2.8913,2.8925,2.8858,2.8881,2.8877,2.8875,2.8858,2.885,2.8843,2.8934,2.8935,2.8935,0,0,2.894,2.8941,2.8917,2.8916,2.8915,2.8922,2.8917,2.8919,2.8921,2.8897,2.8916,2.8902,2.8877,2.8873,2.8868,2.8814,2.8828,2.8809,2.8777,2.8758,2.8752,2.8746,2.8727,2.872,2.8805,2.8805,2.8805,0,2.8907,2.8886,2.8903,2.8884,2.8879,2.8904,2.888,2.8878,2.8871,2.8867,2.8882,2.8853,2.8851,2.8819,2.8806,2.8801,2.8795,2.8809,2.8752,2.8746,2.8741,2.8723,2.8716,2.8802,2.8803,2.8803,2.8803,0,2.8847,2.8832,2.8813,2.8809,2.8802,2.878,2.8793,2.8783,2.8795,2.88,2.8775,2.8774,2.8763,2.8756,2.8765,2.8725,2.8733,2.8749,2.8775,2.8731,2.8714,2.8707,2.8799,2.88,2.8801,2.8801,0,0,2.8765,2.8772,2.8765,2.8764,2.8765,2.8753,2.8733,2.8724,2.8716,2.8711,2.8694,2.8674,2.869,2.8684,2.8693,2.8677,2.8635,2.8696,2.8696,2.8685,2.8591,2.8579,2.857,2.8645,2.8644,2.8643,2.8591,0,2.8711,2.8679,2.8694,2.866,2.8646,2.8671,2.8653,2.8651,2.8656,2.8645,2.865,2.8636,2.8657,2.8654,2.8639,2.8643,2.8616,2.8647,2.8629,2.8628,2.8629,2.8562,2.8548,2.85,2.8585,2.8584,2.8583,0,2.8645,2.864,2.8604,2.861,2.8605,2.8589,2.8582,2.8571,2.857,2.8574,2.8569,2.8583,2.8563,2.8589,2.8562,2.8582,2.8576,2.8577,2.8575,2.8574,2.8603,2.8558,2.8485,2.8477,2.8573,2.8574,2.8574,0,2.8589,2.8573,2.8551,2.8549,2.8554,2.8543,2.8544,2.8544,2.8538,2.8532,2.8528,2.8519,2.8513,2.8506,2.8516,2.8535,2.8487,2.8514,2.849,2.849,2.8479,2.8479,2.8403,2.8475,2.8475,2.8475,2.8475,0,2.8528,2.8506,2.8526,2.8512,2.8488,2.8505,2.848,2.8484,2.8484,2.8471,2.849,2.8477,2.8492,2.848,2.8489,2.8465,2.8462,2.8465,2.8467,2.8463,2.8463,2.8459,2.8462,2.8473,2.8473,2.8474,2.8474,0,2.8462,2.8475,2.8452,2.8459,2.8461,2.8443,2.8449,2.8436,2.8443,2.8426,2.8422,2.8433,2.842,2.8431,2.8417,2.8423,2.8391,2.8398,2.8392,2.8394,2.837,2.8372,2.8288,2.8278,2.8356,2.8355,2.8355,0,2.8422,2.8406,2.8412,2.8406,2.8407,2.8395,2.839,2.8406,2.84,2.8398,2.8385,2.8374,2.8366,2.8344,2.835,2.834,2.8347,2.8319,2.8346,2.8343,2.8347,2.8348,2.8347,2.8313,2.8312,2.8311,2.8311,0,2.835,2.8358,2.835,2.8345,2.8338,2.8335,2.8332,2.8325,2.8342,2.8334,2.8322,2.8316,2.8304,2.8293,2.8285,2.8285,2.83,2.8302,2.8296,2.8292,2.8289,2.8291,2.8378,2.8304,2.8304,2.8305,2.8305,2.8306,2.8296,2.8283,2.8286,2.8277,2.8278,2.8276,2.8264,2.8271,2.8262,2.8255,2.8264,2.825,2.825,2.8242,2.824,2.8229,2.824,2.8231,2.8229,2.8227,2.8224,2.8291,2.8227,2.8227,2.8228,2.8228,2.8228,0,2.8225,2.8229,2.8221,2.8218,2.8211,2.8228,2.8227,2.8219,2.8207,2.8206,2.8199,2.8186,2.8176,2.8182,2.8173,2.8162,2.8169,2.8159,2.816,2.816,2.8213,2.822,2.8154,2.8154,2.8154,2.8154,2.8154,2.8154,2.8188,2.8167,2.8176,2.8155,2.8159,2.8147,2.8144,2.8142,2.8142,2.8127,2.812,2.8124,2.8126,2.8118,2.811,2.8112,2.8107,2.8095,2.8099,2.8149,2.8156,2.8163,2.8169,2.8094,2.8094,2.8047,2.8047,2.8047]}]]